Temp
-1 1 3 8 10 10 11 12 12 12 12 12 12 12 12 11 11 10 11 10 10 10
-1 -1 1 5 7 9 10 10 11 11 12 12 12 12 11 11 11 11 11 11 10 10
-2 -1 -1 2 5 8 9 9 9 10 10 11 11 11 11 11 11 11 11 10 10 10
-3 -2 -1 1 3 7 8 9 9 9 9 9 10 11 11 10 11 11 9 9 9 9
-4 -3 -2 0 2 5 6 7 9 8 8 9 9 10 10 10 10 10 9 9 9 9
-4 -3 -2 -1 0 4 5 6 6 8 8 9 9 9 9 10 9 9 9 9 9 9
-4 -4 -3 -2 -1 1 4 5 5 7 8 9 9 9 9 9 9 9 8 8 8 8
-4 -5 -4 -2 -2 -0 2 4 5 6 7 8 8 9 9 8 8 7 7 7 7 7
-4 -5 -4 -3 -2 -1 1 3 4 5 7 7 7 8 8 7 7 7 7 6 6 6
-4 -4 -4 -4 -3 -2 0 3 4 5 7 7 7 7 7 7 6 6 6 6 6 6
-4 -5 -5 -4 -3 -2 -0 3 3 5 7 7 6 6 6 6 6 6 5 5 5 5
-5 -5 -5 -4 -4 -2 -1 2 3 4 6 6 7 6 6 6 6 5 5 6 6 6
-5 -5 -5 -5 -4 -3 -1 3 3 4 6 6 6 6 6 6 5 5 5 6 6 7
-6 -5 -5 -4 -3 -2 1 2 3 4 4 5 5 5 5 5 5 5 5 5 5 6
Height
797 788 781 776 775 775 775 775 776 776 777 777 778 779 780 782 783 783 783 783 783 783
793 787 781 773 771 772 771 770 769 769 770 770 772 773 774 775 776 777 777 777 777 777
790 785 779 771 768 767 767 765 764 763 763 763 764 765 767 767 768 769 769 769 770 770
786 783 778 768 764 761 760 759 758 758 758 757 757 757 758 758 758 759 761 762 761 762
786 783 774 766 757 755 753 753 751 751 750 749 749 749 749 749 749 749 751 752 753 755
783 782 766 757 751 749 746 745 744 742 741 740 739 740 739 740 740 740 741 743 744 747
785 773 760 747 749 744 740 739 736 733 733 732 731 730 730 730 731 731 733 734 736 738
774 767 756 747 746 738 735 732 728 728 726 724 722 721 722 722 723 723 724 726 729 730
768 759 750 742 739 734 728 724 722 721 718 715 714 714 715 716 717 717 718 719 720 721
761 753 747 735 730 726 718 711 716 713 708 707 706 707 709 710 712 712 711 711 712 711
751 742 732 732 730 721 714 714 710 704 700 701 701 703 704 706 706 705 703 701 700 700
742 736 734 729 721 714 710 707 702 698 694 694 696 699 700 701 700 698 694 691 690 689
741 735 729 722 717 709 705 700 697 692 689 690 693 695 696 696 694 691 688 684 681 679
735 728 722 715 707 701 698 696 692 688 686 688 690 692 693 691 689 687 684 682 678 676
Wind_Speed
35 31 27 18 15 19 22 22 21 25 25 24 24 24 24 24 25 24 24 25 28 27
39 36 31 21 17 18 17 18 24 26 25 27 29 28 28 29 28 29 28 27 26 26
38 41 35 26 21 18 18 17 18 21 25 29 30 31 32 34 34 32 32 31 29 28
39 41 38 28 24 18 20 20 21 22 23 28 30 33 34 34 33 32 28 27 26 26
38 41 37 29 26 18 22 22 23 25 26 26 29 31 33 32 31 31 29 29 25 25
33 37 34 30 32 24 23 22 23 22 25 25 29 30 33 35 33 34 33 30 28 27
35 36 35 32 34 29 22 23 23 22 25 27 28 28 34 36 33 31 31 30 31 30
34 37 34 30 33 30 24 22 23 24 27 26 26 30 31 29 28 25 25 26 29 31
33 34 32 31 32 30 26 21 24 24 25 25 27 28 24 22 22 21 22 25 28 32
31 32 30 31 33 31 28 23 29 26 23 25 26 20 16 17 19 22 24 28 30 32
31 32 31 32 30 29 26 24 26 26 23 22 15 12 13 15 19 25 29 30 32 33
31 33 32 32 31 29 28 24 24 23 23 17 14 13 15 17 21 24 26 28 29 32
31 32 33 32 32 30 29 21 22 19 17 16 18 15 15 16 17 18 18 15 15 19
31 32 33 33 30 28 20 15 9 4 6 9 12 10 9 10 8 6 6 6 12 12
Wind_Direction
331 330 325 331 300 278 273 268 262 260 256 252 245 251 253 253 257 260 257 255 250 250
332 326 319 318 313 295 285 285 275 261 254 253 252 251 249 250 254 257 258 257 253 250
327 327 316 314 301 293 291 286 286 283 274 255 250 248 249 247 249 251 253 256 251 249
330 320 314 312 302 304 294 287 286 285 276 267 261 254 249 242 241 244 242 241 241 246
321 312 317 308 311 299 297 285 280 279 276 267 259 258 249 235 232 237 233 236 238 241
312 304 314 314 317 305 298 291 283 277 271 270 257 251 246 243 241 237 240 238 238 243
303 307 310 325 312 303 299 286 285 280 274 269 267 259 241 244 238 235 234 237 244 247
306 305 308 319 307 300 295 285 290 279 267 267 262 252 244 241 230 234 239 243 246 247
306 304 306 314 302 297 299 285 295 285 268 265 255 252 242 236 236 242 247 248 251 252
303 300 303 309 304 302 304 309 293 291 274 257 242 226 224 237 245 250 253 254 252 249
303 304 311 302 296 298 301 289 292 293 258 233 212 225 237 244 255 264 267 257 250 246
304 302 300 297 298 299 295 287 290 288 235 212 221 236 237 254 266 270 272 266 258 249
297 292 294 294 291 292 285 285 287 274 235 226 228 231 249 259 270 270 262 252 245 242
292 291 292 289 289 290 279 278 266 208 166 196 200 220 249 262 245 220 154 121 106 127